Hourly Data Report for October 19, 2015

All times are specified in Local Standard Time (LST). Add 1 hour to adjust for Daylight Saving Time where and when it is observed.

GJOA HAVEN A
NUNAVUT

68°38'08.000" N
95°51'01.000" W
46.90 m
2302337
71597
YHK

Download Data

Hourly Data (October 2015)
Hourly Data Report for October 19, 2015
Temp Definition
°C
Dew Point Temp Definition
°C
Rel Hum Definition
%
Wind Dir Definition
10's deg

Wind Spd Definition
km/h
Visibility Definition
km
Stn Press Definition
kPa
Hmdx Definition


Wind Chill Definition


Weather Definition


TIME
00:00 Legend Double Dagger -9.6 -10.5 93 36 34 2.0 100.71   -20 Snow
01:00 Legend Double Dagger -9.7 -10.9 91 34 28 16.1 100.75   -19 Snow
02:00 Legend Double Dagger -9.4 -10.6 91 34 32 9.7 100.80   -19 Snow
03:00 Legend Double Dagger -9.6 -11.1 89 35 28 16.1 100.85   -19 LegendNANA
04:00 Legend Double Dagger -10.2 -11.8 88 35 24 16.1 100.89   -19 LegendNANA
05:00 Legend Double Dagger -10.0 -12.1 85 35 28 16.1 100.93   -19 LegendNANA
06:00 Legend Double Dagger -9.7 -11.9 84 35 24 8.1 100.97   -18 Snow
07:00 Legend Double Dagger -9.6 -12.4 80 36 28 16.1 101.00   -19 Snow
08:00 Legend Double Dagger -10.2 -12.6 83 35 32 16.1 101.05   -20 LegendNANA
09:00 Legend Double Dagger -10.2 -12.7 82 35 30 16.1 101.10   -20 LegendNANA
10:00 Legend Double Dagger -10.3 -12.8 82 34 30 16.1 101.15   -20 LegendNANA
11:00 Legend Double Dagger -10.2 -13.7 76 34 21 16.1 101.19   -18 LegendNANA
12:00 Legend Double Dagger -10.3 -14.1 74 34 17 16.1 101.24   -18 LegendNANA
13:00 Legend Double Dagger -10.0 -12.8 80 34 18 16.1 101.27   -17 Snow
14:00 Legend Double Dagger -10.2 -12.8 81 33 21 16.1 101.30   -18 Snow
15:00 Legend Double Dagger -10.6 -13.1 82 33 22 16.1 101.34   -19 Snow
16:00 Legend Double Dagger -10.7 -12.9 84 34 17 16.1 101.37   -18 Snow
17:00 Legend Double Dagger -11.4 -13.7 83 31 18 16.1 101.38   -19 Snow
18:00 Legend Double Dagger -11.9 -13.9 85 33 21 16.1 101.38   -20 Snow
19:00 Legend Double Dagger -12.1 -14.0 86 35 15 16.1 101.39   -19 Snow
20:00 Legend Double Dagger -13.0 -14.6 88 29 15 16.1 101.40   -20 Snow
21:00 Legend Double Dagger -12.8 -14.3 89 33 13 16.1 101.38   -20 LegendNANA
22:00 Legend Double Dagger -12.3 -13.8 89 27 11 16.1 101.34   -18 Snow
23:00 Legend Double Dagger -11.9 -13.5 88 26 5 16.1 101.35   -15 Snow

Notes on Data Quality.

Legend

  • E = Estimated
  • M = Missing
  • NA = Not Available
  • ‡ = Partner data that is not subject to review by the National Climate Archives
Date modified: